Hourly Data Report for October 16, 2016

All times are specified in Local Standard Time (LST). Add 1 hour to adjust for Daylight Saving Time where and when it is observed.

BAKER LAKE A
NUNAVUT

64°17'56.000" N
96°04'40.000" W
18.60 m
2300503
71926
YBK

Download Data

Hourly Data (October 2016)
Hourly Data Report for October 16, 2016
Temp Definition
°C
Dew Point Temp Definition
°C
Rel Hum Definition
%
Wind Dir Definition
10's deg

Wind Spd Definition
km/h
Visibility Definition
km
Stn Press Definition
kPa
Hmdx Definition


Wind Chill Definition


Weather Definition


TIME
00:00 Legend Double Dagger -8.3 -11.8 76 26 13 24.1 101.49   -14 Snow
01:00 Legend Double Dagger -8.2 -11.9 75 25 19 24.1 101.51   -15 Snow
02:00 Legend Double Dagger -8.5 -12.3 74 27 17 24.1 101.54   -15 Snow
03:00 Legend Double Dagger -8.6 -12.1 76 27 9 24.1 101.55   -13 Snow
04:00 Legend Double Dagger -8.7 -12.4 75 26 8 24.1 101.56   -13 Snow
05:00 Legend Double Dagger -8.8 -11.8 79 23 5 24.1 101.56   -12 Snow
06:00 Legend Double Dagger -9.1 -11.5 83 19 18 24.1 101.56   -16 Snow
07:00 Legend Double Dagger -9.6 -11.7 85 20 21 16.1 101.57   -18 Snow
08:00 Legend Double Dagger -9.6 -11.5 86 20 18 32.2 101.59   -17 Snow
09:00 Legend Double Dagger -9.3 -11.5 84 18 17 32.2 101.62   -16 Snow
10:00 Legend Double Dagger -9.2 -11.7 82 21 17 32.2 101.66   -16 Snow
11:00 Legend Double Dagger -9.5 -11.7 84 20 17 32.2 101.67   -17 Snow
12:00 Legend Double Dagger -9.4 -12.1 81 19 16 32.2 101.68   -16 Cloudy
13:00 Legend Double Dagger -9.5 -12.5 79 19 13 32.2 101.68   -16 LegendNANA
14:00 Legend Double Dagger -9.8 -12.8 79 18 12 32.2 101.65   -16 LegendNANA
15:00 Legend Double Dagger -9.8 -12.6 80 17 10 32.2 101.64   -15 Mostly Cloudy
16:00 Legend Double Dagger -9.2 -11.6 83 18 16 32.2 101.66   -16 LegendNANA
17:00 Legend Double Dagger -9.2 -11.3 85 18 12 32.2 101.63   -15 LegendNANA
18:00 Legend Double Dagger -8.9 -10.8 86 15 12 24.1 101.61   -15 Snow
19:00 Legend Double Dagger -9.0 -10.8 87 18 18 24.1 101.66   -16 Snow
20:00 Legend Double Dagger -9.1 -10.3 91 17 14 24.1 101.68   -15 Snow
21:00 Legend Double Dagger -9.1 -10.6 89 19 15 24.1 101.70   -16 Snow
22:00 Legend Double Dagger -9.2 -11.3 85 18 12 24.1 101.68   -15 LegendNANA
23:00 Legend Double Dagger -9.1 -10.9 87 18 13 24.1 101.66   -15 LegendNANA

Notes on Data Quality.

Legend

  • E = Estimated
  • M = Missing
  • NA = Not Available
  • ‡ = Partner data that is not subject to review by the National Climate Archives
Date modified: